MST,Max TemperatureF,Mean TemperatureF,Min TemperatureF,Max Dew PointF,MeanDew PointF,Min DewpointF,Max Humidity, Mean Humidity, Min Humidity, Max Sea Level PressureIn, Mean Sea Level PressureIn, Min Sea Level PressureIn, Max VisibilityMiles, Mean VisibilityMiles, Min VisibilityMiles, Max Wind SpeedMPH, Mean Wind SpeedMPH, Max Gust SpeedMPH,PrecipitationIn, CloudCover, Events, WindDirDegrees
2012-12-1,63,50,30,17,13,6,36,26,14,30.02,29.91,29.83,10,10,10,14,8,,0.00,0,,163
2012-12-2,64,49,34,18,7,-4,40,22,7,30.02,29.90,29.70,10,10,10,31,9,37,0.00,0,,247
2012-12-3,59,48,36,27,19,11,46,32,20,30.22,29.90,29.68,10,10,10,17,9,26,0.00,1,,336
2012-12-4,52,38,23,24,19,11,61,47,30,30.36,30.25,30.09,10,10,10,18,6,,0.00,0,,177
2012-12-5,68,52,36,19,15,9,37,26,14,30.16,29.98,29.78,10,10,10,18,7,,0.00,0,,244
2012-12-6,55,47,37,25,19,14,60,32,23,29.87,29.78,29.68,10,10,10,21,10,28,0.00,2,,173
2012-12-7,57,42,26,28,21,12,92,52,17,29.88,29.79,29.69,10,10,10,15,10,21,0.00,0,,187
2012-12-8,55,37,19,21,13,5,82,40,13,29.87,29.74,29.60,10,10,10,22,9,30,0.00,0,,238
2012-12-9,44,26,7,20,13,4,96,82,23,30.26,29.99,29.60,10,5,0,23,11,41,0.02,5,Fog-Snow,76
2012-12-10,26,10,-5,16,4,-8,92,75,53,30.20,30.08,29.94,10,8,2,26,8,,0.00,0,Snow,197
2012-12-11,28,21,14,11,5,1,62,53,30,30.12,30.06,30.01,10,10,10,17,9,,0.00,0,,347
2012-12-12,46,32,19,26,14,3,54,46,31,30.06,29.98,29.90,10,10,10,14,7,,0.00,0,,164
2012-12-13,46,35,24,23,15,8,56,46,34,30.07,30.00,29.89,10,10,10,23,10,,0.00,0,,186
2012-12-14,36,32,28,32,27,16,100,83,52,29.89,29.71,29.52,10,6,0,38,12,50,0.09,6,Fog-Snow,211
2012-12-15,39,31,23,28,21,14,93,69,48,29.84,29.78,29.72,10,9,0,28,14,34,0.00,2,Fog-Snow,246
2012-12-16,39,30,19,18,10,3,69,45,25,29.91,29.77,29.66,10,10,10,22,13,33,0.00,0,,298
2012-12-17,48,32,17,23,16,9,71,52,27,29.91,29.84,29.76,10,10,10,34,11,41,0.00,0,,283
2012-12-18,53,40,28,23,16,7,64,43,16,29.76,29.67,29.53,10,10,10,24,11,32,0.00,0,,211
2012-12-19,37,24,10,32,20,6,100,74,37,30.18,29.67,29.45,10,8,0,31,18,45,0.00,5,Fog-Snow,198
2012-12-20,41,26,10,13,3,-6,88,44,14,30.43,30.35,30.20,10,10,10,15,7,,0.00,0,,242
2012-12-21,53,37,21,6,-2,-18,48,25,5,30.34,30.21,30.06,10,10,10,21,7,26,0.00,0,,153
2012-12-22,55,40,25,8,2,-11,37,22,7,30.11,29.99,29.88,10,10,10,12,4,,0.00,0,,360
2012-12-23,53,40,27,9,2,-17,47,25,5,30.01,29.91,29.86,10,10,10,29,10,37,0.00,0,,333
2012-12-24,50,36,23,22,13,8,78,44,22,29.91,29.69,29.47,10,10,10,30,9,36,0.00,0,,217
2012-12-25,28,20,12,21,16,10,93,84,59,30.16,29.92,29.51,10,6,1,24,11,30,0.01,7,Snow,85
2012-12-26,46,29,12,16,13,5,92,63,20,30.09,29.85,29.65,10,10,10,29,14,34,0.00,0,,200
2012-12-27,37,28,19,17,12,3,78,55,25,29.78,29.68,29.57,10,10,10,20,14,26,0.00,0,,247
2012-12-28,32,21,10,18,9,4,96,73,33,30.19,29.95,29.79,10,6,0,13,6,,0.00,1,Fog,67
2012-12-29,36,23,10,8,3,-2,70,48,20,30.36,30.24,30.09,10,10,10,22,8,,0.00,0,,191
2012-12-30,39,29,19,16,12,8,65,49,35,30.06,29.95,29.81,10,10,10,20,14,26,0.00,6,,186
2012-12-31,30,22,15,25,20,10,100,91,51,30.00,29.84,29.75,10,4,0,18,7,,0.08,6,Fog-Snow,103